Find Starlink 6304

NORAD ID: 56778 Int'l Des: 2023-078 Owner: SPXS Country: US Constellation: starlink operational
LEOCIRCULAR

リアルタイム位置

3D地球を読み込み中...

Starlink 6304について

説明を読み込み中...

次回通過

Passes for default location (London). Set your location on the main map for personalized predictions.

高度履歴

Loading altitude history...

軌道要素

1 56778U 23078M 26125.59589522 -.00004721 00000-0 -38798-3 0 9998
2 56778 69.9996 181.1311 0003268 276.9171 83.1616 14.98345190161693
Epoch: May 5, 2026 • Age: 17 hours

現在のステータス

高度 593.7 km
速度 7.56 km/s
衛星直下点 -64.35°S, 152.22°E
打ち上げ日 May 31, 2023
運用期間 2.9 years
タイプ internet

技術仕様

分類 Payload
質量 305.00 kg
乾燥質量 290.00 kg
総質量 305.00 kg
長さ 0.20 m
直径 2.80 m
スパン 9.00 m
形状 Box + pan
製造者 SPXS
バスタイプ Starlink
フェーズステータス In Orbit
所有者/国 SPXS/US

Most Searched